+ View the NASA Portal
+ Center for Near-Earth Object Studies
IMPORTANT:
The SSD Announcement email list is now available. Major changes are coming in the near future, including possible hostname and/or URL changes. To be notified of such changes, subscribe to this email list.
Please visit
this page
for more details.
Don't show this message again
JPL Small-Body Database Browser
Search:
[
help
]
214068 (2004 GX1)
Classification:
Main-belt Asteroid
SPK-ID:
2214068
[
Ephemeris
|
Orbit Diagram
|
Orbital Elements
|
Mission Design
|
Physical Parameters
|
Discovery Circumstances
|
Close-Approach Data
]
[ show orbit diagram ]
Orbital Elements at Epoch 2458600.5 (2019-Apr-27.0) TDB
Reference:
JPL 10
(heliocentric ecliptic J2000)
Element
Value
Uncertainty (1-sigma)
Units
e
.1711837808623002
4.8282e-08
a
3.153509595579343
3.493e-08
au
q
2.613679900022528
1.5043e-07
au
i
9.666248786636674
8.674e-06
deg
node
195.5715920883206
3.1885e-05
deg
peri
65.71589410258869
4.185e-05
deg
M
208.636047942484
2.4949e-05
deg
t
p
2459460.522116517123
(2021-Sep-03.02211652)
0.00014355
TDB
period
2045.453740719705
5.60
3.3984e-05
9.304e-08
d
yr
n
.1760000692429895
2.9242e-09
deg/d
Q
3.693339291136159
4.0909e-08
au
Orbit Determination Parameters
# obs. used (total)
251
data-arc span
8954 days (24.51 yr)
first obs. used
1993-05-20
last obs. used
2017-11-24
planetary ephem.
DE431
SB-pert. ephem.
SB431-N16
condition code
0
norm. resid. RMS
.56977
source
ORB
producer
Otto Matic
solution date
2018-Oct-04 08:33:11
Additional Information
Earth MOID
= 1.61722 au
Jupiter MOID
= 1.44887 au
T_jup
= 3.162
[ show covariance matrix ]
[
Ephemeris
|
Orbit Diagram
|
Orbital Elements
|
Mission Design
|
Physical Parameters
|
Discovery Circumstances
|
Close-Approach Data
]
Physical Parameter Table
Parameter
Symbol
Value
Units
Sigma
Reference
Notes
absolute magnitude
H
15.6
n/a
MPO427259
diameter
diameter
5.113
km
0.119
urn:nasa:pds:neowise_diameters_albedos::2.0[mainbelt] (http://adsabs.harvard.edu/abs/2011ApJ...741...68M)
geometric albedo
albedo
0.047
0.008
urn:nasa:pds:neowise_diameters_albedos::2.0[mainbelt] (http://adsabs.harvard.edu/abs/2011ApJ...741...68M)
214068 (2004 GX1)
Discovered 2004-Apr-11 by CSS at Catalina
Reference:
20090509/Numbers.arc
Last Updated:
2009-05-11
[ show close-approach data ]
[
Ephemeris
|
Orbit Diagram
|
Orbital Elements
|
Mission Design
|
Physical Parameters
|
Discovery Circumstances
|
Close-Approach Data
]
2019-Dec-07 02:22 UT
(server date/time)
Site Manager:
Ryan S. Park
Webmaster
:
Alan B. Chamberlin